EST,Max TemperatureF,Mean TemperatureF,Min TemperatureF,Max Dew PointF,MeanDew PointF,Min DewpointF,Max Humidity, Mean Humidity, Min Humidity, Max Sea Level PressureIn, Mean Sea Level PressureIn, Min Sea Level PressureIn, Max VisibilityMiles, Mean VisibilityMiles, Min VisibilityMiles, Max Wind SpeedMPH, Mean Wind SpeedMPH, Max Gust SpeedMPH,PrecipitationIn, CloudCover, Events, WindDirDegrees
2014-1-1,33,29,25,19,12,4,59,48,37,30.41,30.34,30.27,10,10,10,21,9,28,0.00,6,,292
2014-1-2,32,25,18,25,20,14,88,74,59,30.23,29.92,29.69,10,6,0,28,19,36,0.18,8,Fog-Snow,42
2014-1-3,19,15,10,12,5,-5,88,67,46,30.48,30.03,29.64,10,5,0,29,18,37,0.25,4,Fog-Snow,339
2014-1-4,28,19,9,15,2,-4,61,47,33,30.53,30.43,30.31,10,10,10,16,6,21,0.00,2,,224
2014-1-5,50,38,25,48,29,15,96,77,58,30.32,30.15,29.77,10,3,0,20,6,26,0.10,7,Fog-Rain,81
2014-1-6,53,37,20,52,37,2,100,69,38,29.74,29.56,29.41,10,6,0,32,17,39,0.31,7,Fog-Rain,227
2014-1-7,20,12,4,-7,-12,-16,45,39,32,30.40,30.15,29.79,10,10,10,33,21,46,0.00,1,,267
2014-1-8,26,18,9,1,-4,-9,50,43,36,30.57,30.49,30.42,10,10,10,21,11,29,0.00,4,,265
2014-1-9,33,28,23,13,8,1,59,46,32,30.66,30.60,30.51,10,10,10,15,7,21,0.00,4,,264
2014-1-10,35,31,27,32,26,15,96,73,50,30.58,30.43,30.22,10,5,0,9,6,17,0.15,8,Rain-Snow,53
2014-1-11,56,45,34,53,47,32,100,93,86,30.19,29.72,29.32,10,4,0,28,12,38,0.50,8,Fog-Rain,180
2014-1-12,54,47,39,48,28,23,83,62,41,30.08,29.76,29.40,10,10,9,31,16,39,0.02,4,Rain,282
2014-1-13,50,43,35,37,32,25,75,64,53,30.16,30.05,29.91,10,10,8,20,9,25,0.00,4,,190
2014-1-14,50,47,43,45,41,36,93,79,65,29.89,29.77,29.68,10,8,1,15,8,20,0.38,8,Rain,221
2014-1-15,47,42,36,38,36,33,92,81,70,30.01,29.94,29.86,10,5,0,12,5,15,0.00,5,Fog,127
2014-1-16,41,39,36,37,29,25,100,80,59,29.95,29.90,29.85,10,9,0,14,7,17,T,8,Fog,358
2014-1-17,46,40,33,30,25,18,70,59,48,30.00,29.94,29.89,10,10,10,16,6,21,0.00,4,,193
2014-1-18,39,34,29,34,29,16,89,71,52,29.86,29.75,29.67,10,7,2,25,12,31,0.15,7,Rain-Snow-Thunderstorm,343
2014-1-19,38,32,25,21,16,11,63,55,47,29.84,29.75,29.67,10,10,10,24,13,33,0.00,4,,245
2014-1-20,46,39,32,28,22,15,55,46,37,29.90,29.69,29.59,10,10,10,28,13,36,T,7,Rain,254
2014-1-21,32,22,12,16,10,5,84,61,38,30.01,29.93,29.83,10,3,0,26,15,35,0.25,8,Snow,10
2014-1-22,18,13,7,3,-2,-4,70,57,43,30.01,29.86,29.79,10,10,6,29,19,37,T,5,Snow,332
2014-1-23,21,15,8,4,-1,-5,63,51,39,30.30,30.15,30.01,10,10,10,23,14,29,0.00,4,,294
2014-1-24,20,16,11,1,-2,-7,58,45,31,30.39,30.29,30.11,10,10,10,23,15,31,0.00,2,,273
2014-1-25,27,23,19,21,11,1,81,61,41,30.06,29.64,29.46,10,8,1,24,14,32,0.02,7,Snow,220
2014-1-26,32,25,18,17,6,-3,68,52,36,29.91,29.81,29.50,10,9,2,32,13,40,T,4,Snow,243
2014-1-27,44,33,21,26,15,-2,72,51,29,30.09,29.78,29.62,10,10,10,29,13,36,0.00,7,,287
2014-1-28,21,17,13,-1,-7,-12,51,40,28,30.38,30.28,30.11,10,10,10,23,10,29,0.00,7,,324
2014-1-29,23,19,14,9,1,-7,73,51,28,30.30,30.19,30.10,10,7,1,22,12,28,0.05,4,Snow,297
2014-1-30,29,24,18,14,2,-5,57,45,32,30.47,30.36,30.22,10,10,10,14,7,18,0.00,1,,246
2014-1-31,39,33,26,16,10,5,46,39,32,30.24,30.16,30.11,10,10,10,16,6,21,0.00,7,,261